�������l�o���
Date,Time,MP-1(��Sv/h),MP-2(��Sv/h),MP-3(��Sv/h),MP-4(��Sv/h),MP-5(��Sv/h),MP-6(��Sv/h),MP-7(��Sv/h),����,����(m/s),���J
2017/06/12,00:00,0.367,0.231,0.398,0.366,0.328,0.191,0.119,�k,6.1,��
2017/06/12,00:10,0.372,0.230,0.397,0.364,0.329,0.191,0.119,�k,6.4,��
2017/06/12,00:20,0.369,0.230,0.398,0.366,0.329,0.192,0.118,�k,3.6,��
2017/06/12,00:30,0.372,0.231,0.397,0.363,0.329,0.191,0.119,�k,2.8,��
2017/06/12,00:40,0.368,0.230,0.397,0.366,0.329,0.191,0.119,�k,4.8,��
2017/06/12,00:50,0.372,0.230,0.396,0.364,0.328,0.191,0.119,�k,4.9,��
2017/06/12,01:00,0.368,0.230,0.397,0.366,0.328,0.191,0.118,�k,2.6,��
2017/06/12,01:10,0.371,0.231,0.397,0.363,0.328,0.191,0.119,�k�k��,2.0,��
2017/06/12,01:20,0.370,0.230,0.394,0.366,0.330,0.192,0.118,�k�k��,2.1,��
2017/06/12,01:30,0.371,0.229,0.398,0.364,0.330,0.190,0.119,�k�k��,1.5,��
2017/06/12,01:40,0.368,0.229,0.395,0.367,0.329,0.191,0.119,�k,0.6,��
2017/06/12,01:50,0.371,0.231,0.398,0.364,0.327,0.191,0.119,�k�k��,1.5,��
2017/06/12,02:00,0.367,0.229,0.396,0.366,0.329,0.191,0.119,�k,1.4,��
2017/06/12,02:10,0.371,0.230,0.399,0.363,0.328,0.190,0.118,�k,1.2,��
2017/06/12,02:20,0.370,0.230,0.396,0.367,0.329,0.192,0.119,�k,1.0,��
2017/06/12,02:30,0.370,0.230,0.398,0.363,0.327,0.192,0.120,�k�k��,2.1,��
2017/06/12,02:40,0.370,0.231,0.396,0.366,0.330,0.192,0.118,�k��,1.5,��
2017/06/12,02:50,0.370,0.230,0.398,0.363,0.327,0.190,0.119,�k,0.9,��
2017/06/12,03:00,0.369,0.229,0.398,0.366,0.329,0.192,0.118,�k,0.8,��
2017/06/12,03:10,0.370,0.229,0.396,0.363,0.326,0.191,0.119,���k��,1.1,��
2017/06/12,03:20,0.369,0.230,0.397,0.367,0.328,0.190,0.118,�k��,1.2,��
2017/06/12,03:30,0.371,0.231,0.396,0.364,0.328,0.191,0.119,�k��,2.1,��
2017/06/12,03:40,0.370,0.230,0.398,0.363,0.330,0.191,0.119,�k��,2.0,��
2017/06/12,03:50,0.370,0.230,0.395,0.365,0.327,0.190,0.118,�k�k��,2.7,��
2017/06/12,04:00,0.371,0.230,0.397,0.364,0.328,0.191,0.119,�k�k��,3.6,��
2017/06/12,04:10,0.368,0.229,0.396,0.366,0.329,0.190,0.119,�k,2.1,��
2017/06/12,04:20,0.370,0.230,0.396,0.364,0.328,0.190,0.119,�k,5.5,��
2017/06/12,04:30,0.370,0.230,0.397,0.367,0.331,0.191,0.118,�k,7.2,��
2017/06/12,04:40,0.370,0.230,0.396,0.365,0.328,0.191,0.119,�k,8.7,��
2017/06/12,04:50,0.369,0.230,0.399,0.366,0.330,0.191,0.120,�k,7.7,��
2017/06/12,05:00,0.370,0.229,0.398,0.366,0.330,0.192,0.120,�k,5.0,��
2017/06/12,05:10,0.372,0.230,0.398,0.364,0.329,0.191,0.119,�k�k��,2.5,��
2017/06/12,05:20,0.370,0.229,0.397,0.366,0.331,0.192,0.119,�k��,1.7,��
2017/06/12,05:30,0.372,0.229,0.397,0.364,0.327,0.191,0.119,�k�k��,2.9,��
2017/06/12,05:40,0.370,0.230,0.398,0.366,0.330,0.191,0.120,�k�k��,2.6,��
2017/06/12,05:50,0.373,0.231,0.397,0.364,0.328,0.191,0.119,�k�k��,3.0,��
2017/06/12,06:00,0.370,0.229,0.398,0.365,0.329,0.192,0.119,�k,3.1,��
2017/06/12,06:10,0.371,0.230,0.396,0.366,0.327,0.192,0.120,�k,3.5,��
2017/06/12,06:20,0.369,0.228,0.396,0.362,0.327,0.192,0.118,�k,2.8,��
2017/06/12,06:30,0.373,0.229,0.397,0.365,0.328,0.190,0.119,�k,3.3,��
2017/06/12,06:40,0.368,0.229,0.396,0.364,0.326,0.192,0.118,�k�k��,1.8,��
2017/06/12,06:50,0.371,0.228,0.397,0.364,0.330,0.190,0.117,�k,3.9,��
2017/06/12,07:00,0.368,0.229,0.397,0.363,0.327,0.190,0.117,�k�k��,4.2,��
2017/06/12,07:10,0.371,0.230,0.394,0.362,0.329,0.191,0.119,�k�k��,3.7,��
2017/06/12,07:20,0.371,0.229,0.397,0.364,0.326,0.190,0.119,�k�k��,4.5,��
2017/06/12,07:30,0.370,0.230,0.394,0.362,0.330,0.191,0.118,�k�k��,4.6,��
2017/06/12,07:40,0.369,0.229,0.392,0.364,0.328,0.190,0.117,�k��,4.8,��
2017/06/12,07:50,0.367,0.227,0.393,0.365,0.326,0.189,0.119,�k��,5.2,��
2017/06/12,08:00,0.372,0.230,0.397,0.361,0.330,0.192,0.118,�k��,3.6,��
2017/06/12,08:10,0.369,0.230,0.393,0.359,0.324,0.190,0.118,�k��,3.5,��
2017/06/12,08:20,0.371,0.228,0.392,0.364,0.327,0.190,0.119,�k�k��,3.9,��
2017/06/12,08:30,0.371,0.228,0.392,0.365,0.330,0.192,0.118,�k�k��,2.8,��
2017/06/12,08:40,0.369,0.231,0.398,0.363,0.325,0.191,0.118,�k��,3.1,��
2017/06/12,08:50,0.371,0.230,0.395,0.361,0.327,0.190,0.117,�k�k��,3.1,��
2017/06/12,09:00,0.369,0.227,0.392,0.360,0.329,0.191,0.118,�k��,4.1,��
2017/06/12,09:10,0.364,0.231,0.390,0.361,0.327,0.191,0.118,�k��,3.6,��
2017/06/12,09:20,0.369,0.231,0.396,0.363,0.325,0.189,0.118,�k��,3.8,��
2017/06/12,09:30,0.370,0.229,0.396,0.365,0.327,0.190,0.117,�k��,4.3,��
2017/06/12,09:40,0.368,0.227,0.394,0.365,0.327,0.191,0.118,�k��,3.7,��
2017/06/12,09:50,0.368,0.228,0.395,0.363,0.325,0.190,0.120,�k��,3.1,��
2017/06/12,10:00,0.371,0.230,0.398,0.361,0.329,0.189,0.117,�k�k��,3.2,��
2017/06/12,10:10,0.369,0.229,0.395,0.366,0.329,0.191,0.119,�k�k��,4.3,��
2017/06/12,10:20,0.372,0.230,0.399,0.365,0.328,0.190,0.119,�k��,2.5,��
2017/06/12,10:30,0.370,0.229,0.395,0.365,0.328,0.191,0.118,�k��,3.1,��
2017/06/12,10:40,0.371,0.230,0.399,0.368,0.328,0.189,0.119,�k��,2.7,��
2017/06/12,10:50,0.369,0.230,0.395,0.364,0.332,0.191,0.119,�k�k��,2.4,��
2017/06/12,11:00,0.372,0.230,0.399,0.367,0.326,0.190,0.120,�k�k��,2.3,��
2017/06/12,11:10,0.369,0.229,0.398,0.363,0.330,0.191,0.116,�k�k��,2.1,��
2017/06/12,11:20,0.370,0.231,0.398,0.366,0.327,0.190,0.116,�k�k��,2.6,��
2017/06/12,11:30,0.371,0.229,0.397,0.366,0.327,0.190,0.116,�k,4.2,��
2017/06/12,11:40,0.370,0.229,0.395,0.363,0.327,0.191,0.115,�k�k��,3.8,��
2017/06/12,11:50,0.371,0.230,0.399,0.367,0.326,0.190,0.117,�k�k��,4.0,��
2017/06/12,12:00,0.368,0.229,0.393,0.364,0.330,0.190,0.116,�k�k��,3.1,��
2017/06/12,12:10,0.370,0.230,0.399,0.364,0.326,0.190,0.117,�k��,3.5,��
2017/06/12,12:20,0.368,0.230,0.396,0.366,0.327,0.189,0.116,�k��,5.2,��
2017/06/12,12:30,0.372,0.231,0.394,0.361,0.329,0.191,0.116,�k�k��,5.2,��
2017/06/12,12:40,0.368,0.228,0.397,0.360,0.325,0.190,0.117,�k��,3.8,��
2017/06/12,12:50,0.369,0.229,0.396,0.364,0.322,0.190,0.115,�k��,3.4,��
2017/06/12,13:00,0.370,0.230,0.393,0.364,0.327,0.189,0.116,�k��,3.1,��
2017/06/12,13:10,0.368,0.228,0.391,0.363,0.328,0.191,0.116,���k��,3.0,��
2017/06/12,13:20,0.367,0.230,0.396,0.361,0.326,0.190,0.115,�k��,2.2,��
2017/06/12,13:30,0.371,0.230,0.397,0.368,0.327,0.190,0.114,�k��,2.2,��
2017/06/12,13:40,0.368,0.228,0.396,0.364,0.331,0.191,0.115,�k�k��,3.3,��
2017/06/12,13:50,0.371,0.230,0.400,0.364,0.326,0.191,0.115,�k�k��,3.8,��
2017/06/12,14:00,0.369,0.229,0.396,0.369,0.328,0.189,0.115,�k��,3.3,��
2017/06/12,14:10,0.373,0.231,0.399,0.365,0.330,0.191,0.117,��,1.7,�L
2017/06/12,14:20,0.370,0.230,0.398,0.366,0.328,0.191,0.117,�k��,2.3,�L
2017/06/12,14:30,0.372,0.232,0.400,0.364,0.331,0.191,0.118,�k��,3.3,��
2017/06/12,14:40,0.371,0.230,0.399,0.368,0.326,0.190,0.118,�k��,2.3,��
2017/06/12,14:50,0.373,0.230,0.399,0.367,0.331,0.191,0.119,��,1.6,��
2017/06/12,15:00,0.370,0.231,0.396,0.367,0.327,0.190,0.117,���k��,1.0,�L
2017/06/12,15:10,0.373,0.232,0.395,0.367,0.331,0.191,0.118,�k��,1.4,�L
2017/06/12,15:20,0.370,0.231,0.397,0.364,0.326,0.191,0.121,���k��,1.4,�L
2017/06/12,15:30,0.372,0.233,0.399,0.366,0.330,0.194,0.123,�k�k��,2.5,�L
2017/06/12,15:40,0.370,0.234,0.397,0.367,0.328,0.195,0.125,�k,1.1,�L
2017/06/12,15:50,0.373,0.234,0.398,0.364,0.331,0.197,0.126,�k�k��,2.1,�L
2017/06/12,16:00,0.370,0.234,0.394,0.364,0.329,0.196,0.126,�k�k��,2.7,�L
2017/06/12,16:10,0.372,0.234,0.396,0.363,0.332,0.197,0.127,���k��,2.7,�L
2017/06/12,16:20,0.369,0.234,0.394,0.365,0.328,0.196,0.126,�k��,1.4,�L
2017/06/12,16:30,0.369,0.233,0.392,0.361,0.328,0.195,0.126,�k,1.5,�L
2017/06/12,16:40,0.367,0.232,0.392,0.364,0.326,0.194,0.126,�k��,2.1,�L
2017/06/12,16:50,0.367,0.232,0.392,0.359,0.328,0.194,0.124,�k�k��,3.1,�L
2017/06/12,17:00,0.367,0.230,0.390,0.361,0.328,0.193,0.124,�k,2.7,�L
2017/06/12,17:10,0.366,0.230,0.388,0.359,0.325,0.190,0.123,�k�k��,1.8,��
2017/06/12,17:20,0.366,0.229,0.388,0.360,0.325,0.191,0.121,�k��,1.5,��
2017/06/12,17:30,0.363,0.228,0.386,0.357,0.322,0.189,0.121,�k��,2.1,��
2017/06/12,17:40,0.365,0.227,0.386,0.356,0.324,0.189,0.120,�k��,1.4,��
2017/06/12,17:50,0.361,0.226,0.385,0.357,0.321,0.188,0.119,���k��,1.3,��
2017/06/12,18:00,0.365,0.226,0.385,0.355,0.323,0.188,0.118,���k��,0.8,��
2017/06/12,18:10,0.359,0.224,0.386,0.355,0.320,0.187,0.118,�k��,0.8,��
2017/06/12,18:20,0.362,0.225,0.383,0.353,0.324,0.187,0.118,���k��,0.6,��
2017/06/12,18:30,0.361,0.224,0.384,0.355,0.320,0.186,0.118,���k��,0.9,��
2017/06/12,18:40,0.362,0.224,0.383,0.354,0.323,0.186,0.117,���쐼,0.9,��
2017/06/12,18:50,0.361,0.224,0.385,0.355,0.320,0.186,0.117,���쐼,0.9,��
2017/06/12,19:00,0.361,0.223,0.382,0.352,0.323,0.186,0.117,���쐼,0.7,��
2017/06/12,19:10,0.360,0.225,0.385,0.355,0.320,0.186,0.116,�쐼,1.7,��
2017/06/12,19:20,0.360,0.222,0.383,0.353,0.323,0.186,0.118,��,1.2,��
2017/06/12,19:30,0.361,0.222,0.383,0.354,0.322,0.186,0.117,-,CALM,��
2017/06/12,19:40,0.360,0.223,0.384,0.352,0.322,0.186,0.118,�k�k��,0.8,��
2017/06/12,19:50,0.361,0.222,0.382,0.355,0.321,0.185,0.118,�k�k��,1.0,��
2017/06/12,20:00,0.361,0.224,0.384,0.353,0.321,0.185,0.117,�k�k��,1.0,��
2017/06/12,20:10,0.362,0.222,0.381,0.354,0.321,0.186,0.117,�k�k��,1.9,��
2017/06/12,20:20,0.361,0.223,0.385,0.355,0.320,0.187,0.117,�k,3.1,��
2017/06/12,20:30,0.361,0.223,0.381,0.355,0.324,0.185,0.116,�k,1.8,��
2017/06/12,20:40,0.359,0.223,0.384,0.353,0.321,0.187,0.116,�k�k��,3.1,��
2017/06/12,20:50,0.362,0.224,0.384,0.353,0.323,0.186,0.117,��,1.3,��
2017/06/12,21:00,0.360,0.223,0.384,0.354,0.322,0.185,0.118,�k��,1.4,��
2017/06/12,21:10,0.360,0.222,0.384,0.353,0.320,0.186,0.116,�k,3.7,��
2017/06/12,21:20,0.360,0.224,0.384,0.357,0.324,0.185,0.117,�k,4.4,��
2017/06/12,21:30,0.360,0.224,0.383,0.354,0.323,0.186,0.117,�k,2.4,��
2017/06/12,21:40,0.361,0.223,0.384,0.355,0.322,0.186,0.117,�k,2.3,��
2017/06/12,21:50,0.360,0.225,0.385,0.354,0.323,0.186,0.117,�k,2.0,��
2017/06/12,22:00,0.362,0.224,0.386,0.354,0.321,0.186,0.117,�k,2.7,��
2017/06/12,22:10,0.362,0.223,0.382,0.356,0.322,0.186,0.118,�k,2.8,��
2017/06/12,22:20,0.362,0.224,0.385,0.354,0.322,0.185,0.117,�k�k��,2.9,��
2017/06/12,22:30,0.362,0.223,0.384,0.356,0.322,0.187,0.118,�k,4.0,��
2017/06/12,22:40,0.360,0.223,0.384,0.353,0.320,0.186,0.116,�k,3.6,��
2017/06/12,22:50,0.364,0.224,0.386,0.355,0.322,0.186,0.118,�k�k��,4.2,��
2017/06/12,23:00,0.361,0.223,0.382,0.356,0.324,0.187,0.118,�k��,2.1,��
2017/06/12,23:10,0.361,0.223,0.384,0.354,0.321,0.187,0.118,�k,1.4,��
2017/06/12,23:20,0.362,0.224,0.383,0.355,0.321,0.185,0.117,�k�k��,1.4,��
2017/06/12,23:30,0.359,0.223,0.384,0.355,0.322,0.186,0.117,�k�k��,1.7,��
2017/06/12,23:40,0.360,0.223,0.384,0.354,0.321,0.186,0.117,�k,2.3,��
2017/06/12,23:50,0.359,0.224,0.383,0.355,0.323,0.186,0.118,�k�k��,1.2,��
